GFSSGP_sfc_wetblb_057.txt.gz
Wetbulb
59.54 55.05 54.13 50.53 45.59 41.91 38.46 40.90 42.61 42.89 44.43 47.65 46.81 45.90 46.23 48.99 44.68 41.71 58.28 66.55 68.55 68.89 70.20 70.75 71.62 72.91 72.75 72.75 72.40 72.31 72.29 71.35 69.65 69.12 68.47 67.88 67.27 66.83 66.52 66.19 66.11 66.08 66.47 67.95 68.63 69.81 69.58 68.26 67.44
56.06 54.12 51.08 45.40 40.68 37.16 38.18 40.78 41.70 43.33 48.23 49.14 48.43 49.58 49.85 49.93 54.68 57.34 62.49 66.09 69.36 69.74 70.41 70.91 70.65 72.48 72.95 72.51 72.55 72.17 72.11 71.04 69.69 69.20 68.73 68.20 67.61 66.68 65.66 64.86 64.57 64.78 65.55 66.98 68.00 68.58 67.69 67.02 66.01
54.62 50.33 49.59 41.53 36.74 36.70 37.69 40.80 42.57 46.06 47.20 45.95 47.67 50.30 50.68 51.41 55.32 57.43 61.13 67.78 69.88 70.07 70.64 70.69 70.72 72.08 72.52 72.27 72.60 72.02 71.91 71.11 69.77 69.40 69.11 68.84 68.45 67.86 66.66 64.40 63.61 63.68 64.59 65.69 66.57 66.99 66.32 64.84 63.85
52.09 49.79 44.70 40.68 39.23 41.01 42.04 42.39 43.38 45.65 46.81 46.68 48.51 47.77 51.98 54.92 56.47 59.09 63.74 69.20 69.54 69.95 70.45 70.09 71.26 72.35 72.25 72.16 72.29 71.91 72.24 70.93 69.88 69.49 69.31 68.83 68.18 67.68 66.72 65.08 62.95 62.64 63.52 64.08 64.42 64.93 64.02 62.57 61.40
47.64 45.32 40.24 38.55 39.62 41.24 40.99 42.97 45.13 44.69 43.94 46.32 46.78 45.87 50.42 54.60 58.40 60.70 63.28 68.88 68.79 69.51 70.00 70.44 70.62 70.91 71.95 72.02 72.02 72.15 71.97 71.25 70.05 69.50 69.13 68.56 67.95 67.33 66.55 65.70 64.55 62.48 62.28 62.44 62.52 62.51 61.50 60.20 59.38
45.98 43.44 38.40 36.91 38.25 41.42 42.55 42.71 44.83 43.60 44.23 45.37 46.13 47.90 50.31 52.77 58.26 60.70 64.12 67.66 68.82 69.10 69.59 70.02 67.91 68.89 70.19 71.26 71.54 71.62 71.28 70.89 70.69 69.77 69.03 68.41 67.85 67.18 66.52 65.87 65.06 63.98 63.08 61.77 61.36 61.01 60.11 58.94 58.24
44.32 41.02 37.94 36.87 37.55 39.95 42.22 42.47 42.42 42.86 43.83 45.35 48.29 46.53 48.63 51.29 58.47 58.76 62.35 63.38 64.46 68.27 68.92 69.46 69.80 68.63 67.10 68.47 69.03 69.85 70.45 70.37 69.91 69.80 69.45 68.71 68.10 67.77 67.38 66.56 65.20 64.31 63.49 61.94 60.87 59.93 59.02 58.21 57.60
42.00 40.56 36.95 36.27 37.69 39.73 42.31 42.08 42.86 44.00 43.75 46.01 47.52 44.83 46.45 52.55 55.64 55.54 57.72 59.01 60.51 63.07 67.31 68.16 68.73 69.32 69.71 69.96 65.89 66.99 68.21 68.82 68.75 68.28 67.32 66.17 66.21 65.97 65.43 64.58 65.07 64.03 62.89 61.65 60.45 59.31 58.52 57.63 57.03
42.52 38.40 35.88 37.66 37.66 40.78 40.92 42.01 42.24 44.08 43.89 44.29 45.24 45.80 47.48 52.61 52.68 54.43 55.25 55.47 56.43 56.88 59.12 64.90 67.48 68.27 68.73 68.77 66.71 65.25 65.83 66.36 66.30 65.95 64.03 64.17 66.48 65.97 65.17 63.46 64.56 63.92 62.10 60.75 59.11 58.41 57.16 55.94 55.12
39.46 36.58 38.24 39.90 39.56 40.53 41.46 42.24 42.28 43.14 42.94 43.38 44.04 45.15 47.21 51.59 52.08 55.44 56.46 57.24 56.65 56.05 55.88 57.92 59.71 62.73 66.46 67.80 66.96 67.86 68.30 68.68 68.48 68.09 66.86 66.76 66.18 66.10 64.51 61.41 61.92 62.18 61.48 60.28 58.92 56.74 53.97 51.96 51.16
38.81 36.29 38.83 40.86 42.09 42.55 42.10 40.99 42.47 41.92 41.13 43.63 44.15 44.75 46.39 50.19 51.58 55.68 57.06 58.59 57.38 55.77 55.19 55.31 56.28 57.20 59.87 63.56 67.63 67.09 66.87 67.00 67.52 67.13 66.44 65.28 65.29 65.12 63.50 61.71 59.59 58.99 56.64 56.37 55.57 54.62 53.27 51.87 51.17
38.27 39.08 39.93 43.27 43.23 41.81 41.14 41.76 41.36 41.39 43.78 44.51 44.42 45.40 46.46 48.67 51.37 54.13 56.05 55.37 53.48 52.68 54.19 53.84 54.79 55.76 56.77 57.72 62.23 67.21 66.27 67.01 66.79 66.11 65.46 64.00 63.71 63.77 62.98 62.35 59.94 58.64 57.41 56.06 55.51 54.15 52.48 50.71 49.78
38.52 39.58 41.13 42.49 41.80 41.24 42.20 41.10 41.60 41.36 43.07 43.85 43.32 44.03 45.92 48.39 50.17 48.56 51.48 51.94 50.83 51.02 51.72 52.78 53.21 54.45 55.33 56.24 61.64 64.30 65.97 65.04 66.15 66.36 64.93 63.93 62.97 63.19 62.95 61.87 60.12 58.59 57.26 56.27 54.81 53.90 52.05 49.06 47.09
40.81 41.09 40.66 41.48 41.76 41.63 41.55 40.71 41.43 42.76 42.20 42.90 42.33 43.02 44.29 46.44 48.14 46.42 45.84 47.39 46.66 48.42 49.93 51.06 52.08 53.80 55.70 55.47 61.47 62.58 63.53 63.31 63.27 63.76 64.19 63.37 62.97 62.49 60.72 59.47 57.60 56.98 56.59 55.15 53.61 52.00 48.78 45.92 44.23
40.20 37.83 39.77 39.12 40.99 40.79 41.80 39.25 40.65 42.41 41.82 42.39 42.10 41.69 41.92 43.58 44.85 47.04 48.03 46.04 46.02 47.24 48.68 49.65 51.11 53.63 55.01 56.97 60.23 60.68 60.92 60.96 60.00 59.91 62.14 62.50 61.99 60.98 58.91 56.96 55.89 55.08 53.16 50.61 49.96 47.85 45.81 43.67 41.15
37.43 36.81 34.59 38.33 40.03 40.33 40.66 35.92 40.74 40.62 41.41 42.46 41.66 40.74 40.45 42.09 43.64 44.66 45.44 45.32 45.49 46.77 47.78 48.97 51.62 53.26 54.75 56.25 57.65 57.37 58.35 58.66 57.46 57.79 58.69 60.43 60.23 59.21 57.52 55.58 54.29 52.31 49.83 49.31 48.09 45.76 44.31 41.66 39.27
34.50 31.58 32.19 36.57 39.71 38.75 38.21 36.63 39.84 39.63 39.00 40.01 40.41 40.40 40.20 40.84 41.51 42.58 43.77 44.48 45.11 46.41 47.58 48.17 50.68 52.06 53.44 53.33 53.61 53.13 54.88 55.07 54.71 55.34 55.68 56.36 57.04 56.45 55.79 54.09 50.64 48.53 46.38 47.11 45.80 45.40 43.32 38.94 36.36
31.77 31.52 31.92 32.98 36.70 36.49 35.75 36.29 39.38 39.58 39.17 40.09 39.99 39.94 39.93 40.53 42.55 44.36 42.95 43.00 44.01 45.86 47.10 48.02 49.55 50.87 50.76 49.57 49.17 48.21 48.73 48.21 50.36 50.97 51.18 51.62 51.92 52.50 51.89 49.26 47.18 44.87 43.99 43.82 45.43 43.67 41.74 38.29 36.07
33.67 32.00 31.94 34.09 37.22 36.69 36.12 36.08 38.44 40.51 38.05 38.21 39.88 40.15 40.52 40.96 44.87 43.05 42.65 42.74 42.63 44.94 46.00 46.95 48.34 48.84 48.57 48.47 47.73 47.64 47.63 46.15 45.60 46.25 47.29 47.87 48.70 48.76 48.41 45.11 42.91 42.53 44.79 45.33 44.36 42.22 38.19 35.53 35.50
33.44 31.86 32.71 34.76 36.21 36.43 35.49 36.02 39.63 38.99 41.47 42.03 42.64 42.64 42.09 43.12 41.21 40.87 41.29 40.95 42.10 43.94 45.69 46.30 47.86 47.65 48.72 50.52 46.81 46.65 45.11 42.64 43.31 42.63 42.97 44.46 46.00 45.83 44.32 40.98 38.96 41.44 42.24 42.88 42.51 40.40 36.80 35.96 36.02
32.56 32.11 31.96 33.98 34.39 34.25 33.07 32.38 35.10 38.36 38.93 40.39 40.67 43.02 42.91 43.47 44.19 42.56 39.12 40.08 41.73 42.97 44.80 46.07 47.20 47.19 48.30 48.80 40.95 40.36 40.09 40.11 39.47 39.87 39.19 39.51 41.96 41.97 41.07 38.28 38.64 40.44 43.50 42.13 41.58 39.37 37.47 34.75 32.92
30.83 35.21 34.56 33.36 32.57 28.67 32.67 26.37 33.25 36.33 37.61 38.59 41.09 40.97 42.14 43.43 42.97 41.56 39.32 39.58 40.43 42.69 45.08 46.49 46.81 46.67 47.01 43.40 43.60 43.60 43.45 40.80 40.94 41.30 39.34 37.48 38.84 38.17 37.62 35.99 37.32 39.25 41.45 40.31 39.43 38.06 37.03 35.80 33.27
33.88 35.26 34.01 32.77 31.27 29.61 29.42 28.26 32.49 33.60 35.72 38.21 41.81 42.81 42.88 42.47 41.43 41.57 39.82 40.96 41.13 42.48 44.15 45.86 46.04 46.07 46.08 43.67 45.28 44.92 43.28 40.71 39.73 38.19 36.38 35.58 35.24 35.79 34.93 34.12 35.41 36.66 37.80 38.34 36.89 34.28 33.85 34.73 33.44
36.80 34.85 33.23 31.28 30.53 25.25 29.96 30.27 31.87 32.53 36.63 38.56 40.59 42.13 42.25 41.06 40.32 39.97 39.88 39.28 39.34 41.78 43.82 44.85 44.88 44.99 43.27 43.98 44.45 45.00 44.14 37.23 37.11 35.82 34.59 34.10 33.66 32.87 32.78 31.99 33.39 33.20 33.76 34.24 33.69 33.55 33.73 32.90 32.30
34.35 32.90 25.79 23.21 22.81 25.35 28.45 28.24 35.70 36.09 37.97 39.11 41.42 43.18 40.61 40.30 40.17 39.61 37.93 37.04 38.00 40.64 42.61 43.91 44.31 43.64 41.93 43.31 43.16 43.77 41.05 39.32 38.73 36.13 35.18 32.56 31.87 31.07 30.88 31.06 31.67 31.85 31.95 31.81 32.01 31.98 31.51 31.50 31.55
33.05 33.29 26.51 19.55 19.11 23.38 27.39 25.47 32.10 37.40 38.81 38.95 39.09 39.17 38.14 39.02 39.73 39.45 38.22 36.98 37.91 40.20 41.89 43.38 43.79 43.65 40.96 41.02 41.33 40.73 40.01 40.05 38.82 38.12 36.34 34.58 33.76 32.41 30.98 30.61 31.06 30.52 30.52 30.37 30.74 31.11 30.25 30.52 30.26
32.76 30.79 35.36 28.76 15.43 21.33 26.59 29.51 35.00 36.61 37.50 38.13 39.21 38.52 37.97 38.72 39.20 38.90 37.60 36.36 37.61 39.84 41.33 42.99 43.48 43.55 40.72 40.78 39.98 38.77 38.49 38.14 37.91 36.72 34.85 33.91 33.22 31.16 29.86 30.57 30.07 29.59 29.46 29.68 29.89 29.62 28.72 29.58 29.31
34.78 36.57 29.21 27.22 18.78 15.73 24.49 25.80 30.88 34.27 38.10 38.53 38.39 39.03 39.28 38.98 39.03 37.90 36.22 35.73 37.32 39.47 41.00 42.67 43.35 42.86 40.79 40.58 39.86 38.19 37.92 36.97 36.56 34.60 33.02 31.70 30.60 30.00 28.83 29.18 29.30 28.66 28.60 28.49 28.84 28.14 27.89 28.40 27.90
32.37 31.14 30.71 30.91 27.53 21.43 18.43 27.53 32.64 36.81 37.65 37.72 38.77 39.14 39.71 39.75 38.90 37.98 36.01 35.46 36.97 38.60 39.79 41.59 41.71 41.00 38.75 38.95 38.35 36.34 35.98 35.32 34.43 33.48 32.40 30.88 30.02 29.25 28.41 28.88 28.34 28.10 27.77 27.82 28.14 27.76 27.37 27.31 26.83
30.34 31.26 33.16 26.87 23.23 24.18 23.98 31.07 35.25 36.68 38.41 38.08 38.66 38.78 38.83 38.45 38.59 36.99 35.45 34.85 35.68 37.18 38.39 40.00 40.52 38.37 37.93 37.79 37.31 36.29 35.35 34.19 33.03 32.29 30.80 30.13 29.34 29.12 28.16 28.20 28.12 27.75 27.53 27.57 27.54 26.69 26.79 26.40 25.56

GFSSGP_sfc_wetblb_060.txt.gz
Wetbulb
62.88 60.87 62.71 59.97 51.63 50.41 45.93 45.75 48.59 47.69 48.79 50.98 51.91 50.99 50.88 52.23 48.21 48.76 66.09 69.22 69.99 70.16 70.92 70.65 71.41 72.66 72.29 72.00 71.90 71.98 71.23 69.80 68.99 68.46 67.79 67.17 66.82 66.55 66.51 66.41 66.88 67.99 68.66 70.22 69.95 69.12 67.95 66.85 65.71
60.42 58.57 60.39 56.58 48.88 44.52 45.36 47.58 46.73 49.28 51.88 53.25 53.30 53.89 53.33 53.16 59.04 62.50 66.08 69.13 70.28 70.36 71.11 71.14 70.86 72.88 72.33 72.10 72.20 71.79 71.14 69.82 69.23 68.77 68.37 67.60 66.47 65.51 65.30 65.36 66.02 67.19 67.94 68.99 68.90 67.71 66.37 65.28 64.84
58.76 55.75 57.39 53.79 49.18 44.13 45.25 47.59 49.01 51.25 53.03 51.83 52.03 54.56 54.58 54.99 60.40 64.94 66.81 69.65 70.34 70.31 70.96 70.91 70.95 72.55 72.45 72.21 71.94 71.64 71.11 70.16 69.49 69.20 68.99 68.52 67.56 65.44 64.37 64.45 65.33 66.04 66.79 67.33 66.98 65.55 64.25 64.05 64.16
59.05 57.30 53.70 48.95 45.72 46.54 46.61 48.64 49.48 51.31 50.00 50.13 52.95 51.76 56.19 59.44 62.13 63.94 69.11 69.89 70.02 70.43 71.05 70.10 71.11 72.14 71.56 72.24 71.74 71.48 71.12 69.87 69.64 69.36 68.95 68.41 67.55 66.09 63.91 63.57 64.34 64.62 65.12 65.88 64.77 63.26 62.33 62.44 63.15
57.86 55.62 50.02 47.51 45.82 46.42 47.73 48.93 51.96 49.90 49.51 51.16 52.66 50.94 54.31 59.26 62.36 65.46 69.01 69.82 69.57 70.26 70.79 70.69 70.41 70.81 71.32 72.28 71.87 71.12 71.15 70.40 69.83 69.20 68.64 68.04 67.23 66.42 65.29 63.48 63.30 63.22 63.40 63.48 62.58 61.26 60.70 61.44 62.31
54.89 53.99 47.66 45.07 45.48 46.55 47.85 49.22 51.86 49.91 49.24 50.68 50.09 52.24 54.70 60.15 62.30 66.04 69.53 70.02 70.33 70.11 70.41 70.61 68.32 69.32 70.23 71.43 70.92 70.82 70.59 70.73 70.23 69.13 68.45 67.83 67.12 66.42 65.72 64.82 64.00 62.87 62.43 62.12 61.16 60.17 59.65 60.53 61.38
52.83 51.53 47.08 45.90 45.20 45.69 47.65 50.34 50.59 49.73 49.23 49.94 53.07 50.95 54.08 58.35 63.69 65.79 69.08 70.12 70.31 70.55 70.28 70.64 71.06 69.58 67.47 68.97 69.46 70.08 70.00 70.12 69.95 69.53 68.94 68.22 67.58 67.12 66.00 65.51 64.38 63.16 62.22 61.31 60.32 59.31 59.05 59.95 60.78
53.07 52.54 45.70 45.85 44.96 45.38 48.24 49.42 49.45 49.98 49.17 51.37 54.47 50.01 50.74 58.80 63.55 65.66 68.18 69.00 69.66 70.35 70.19 70.13 70.41 70.20 70.14 70.44 66.20 67.42 68.49 68.72 68.80 68.31 66.98 65.83 65.69 65.66 64.93 63.76 64.13 63.02 61.96 61.04 59.98 59.14 59.11 59.68 60.11
49.48 48.16 45.48 45.78 44.93 46.97 47.67 48.01 47.27 49.05 49.55 50.63 52.14 50.88 53.24 61.05 62.53 64.32 65.27 66.05 66.75 67.81 69.82 70.16 70.05 70.46 70.66 70.38 67.86 65.41 65.95 66.41 66.26 65.96 63.78 63.78 66.51 66.12 65.18 62.79 63.06 61.95 60.91 60.36 59.38 58.45 58.14 58.10 57.70
50.01 47.45 46.36 47.53 48.08 47.49 47.91 48.59 48.39 48.25 48.48 49.44 49.89 50.91 51.99 59.78 61.95 63.46 63.88 64.25 65.05 66.00 67.42 69.49 69.98 70.07 70.43 69.63 70.20 70.07 69.90 69.83 69.35 68.73 67.80 67.49 66.98 66.40 65.12 61.68 61.24 61.27 60.15 58.73 57.91 56.02 54.77 57.30 58.71
46.53 46.27 45.23 46.66 47.20 47.92 47.88 46.92 48.84 48.32 47.26 50.44 50.54 51.76 51.84 58.95 61.33 63.09 64.04 64.89 65.06 66.06 66.37 66.75 68.63 68.70 69.46 69.44 69.11 70.17 70.50 70.06 69.95 69.03 68.66 67.50 66.83 65.51 64.92 62.45 61.16 60.57 58.28 58.10 57.18 56.67 56.12 56.28 56.74
45.15 45.52 46.47 47.85 48.36 47.37 46.78 48.10 47.11 48.43 50.74 50.39 51.96 52.47 52.63 57.14 59.47 61.88 63.45 64.68 65.39 65.13 65.22 65.54 66.04 65.89 66.91 64.95 68.41 69.14 68.26 68.29 69.44 68.98 67.65 66.52 65.86 65.74 63.91 63.49 61.14 59.45 59.29 59.12 58.23 56.01 55.08 54.58 54.07
45.45 45.96 46.49 47.87 47.35 47.34 46.41 47.16 47.84 47.60 51.30 49.94 49.38 49.52 51.76 54.87 59.01 61.37 63.66 65.18 65.27 63.38 64.21 63.68 63.54 64.15 64.05 65.29 65.46 66.63 69.27 68.21 68.03 67.39 65.74 65.57 64.99 64.19 63.24 61.88 60.43 58.84 58.54 58.07 56.29 52.96 51.94 51.11 50.35
47.15 46.73 46.91 47.42 47.61 47.39 46.52 47.45 47.18 49.86 51.03 49.31 48.98 50.43 51.41 52.98 56.74 59.83 60.58 62.54 63.05 62.94 62.70 62.42 60.91 62.22 62.82 63.37 64.78 67.42 67.51 68.96 68.55 68.59 67.02 65.99 65.37 64.11 63.02 61.29 58.90 58.16 57.77 56.83 55.19 50.41 47.65 47.29 47.67
46.21 45.13 46.43 46.76 47.02 46.94 47.19 45.03 45.64 50.50 47.96 49.09 49.64 50.56 50.84 51.63 54.21 56.56 58.54 60.19 62.01 61.16 61.59 59.98 59.46 59.84 60.50 61.95 63.59 65.80 66.46 66.95 67.99 65.48 66.70 66.04 65.29 63.57 61.82 61.52 58.07 56.32 55.48 53.62 50.64 47.66 45.12 45.03 45.47
45.04 45.46 42.79 45.05 45.36 46.52 46.38 43.50 47.88 47.11 47.96 48.96 50.42 51.05 50.58 50.85 51.61 54.31 57.03 58.63 59.54 59.46 57.79 57.82 55.87 57.12 58.60 60.19 61.84 64.21 65.14 64.79 65.55 65.49 64.08 63.95 63.51 62.73 61.72 60.79 57.58 54.15 54.27 51.50 48.98 45.62 44.15 45.67 44.15
44.01 41.13 41.34 43.23 45.47 44.93 45.25 44.83 47.86 46.48 46.15 47.83 49.46 50.13 50.50 50.62 51.00 51.91 54.32 55.50 55.94 55.55 54.94 54.93 55.28 55.98 57.12 58.54 59.63 60.98 61.85 63.72 63.82 62.94 62.07 62.96 61.58 61.10 59.88 58.25 55.43 54.27 54.83 52.00 48.41 45.93 45.67 44.11 41.97
40.67 40.45 40.55 41.68 43.60 43.32 44.00 43.87 47.68 48.81 46.01 48.21 49.89 50.50 50.18 49.73 50.67 52.36 51.92 53.00 54.52 54.31 54.01 54.22 54.38 55.63 56.85 57.95 58.62 58.49 57.18 58.85 60.80 60.75 59.61 58.61 59.96 59.70 57.76 54.50 51.84 51.44 53.58 50.04 47.10 45.38 45.95 43.50 40.41
42.07 41.11 40.66 42.64 43.26 42.85 44.06 44.50 46.41 48.62 48.64 47.80 48.73 49.80 50.54 50.89 52.72 52.70 52.45 51.92 51.60 52.64 52.58 52.92 53.29 54.65 55.90 55.77 55.51 55.33 53.03 52.43 53.86 55.42 54.97 55.43 55.43 55.28 54.05 52.28 48.42 48.07 49.36 50.53 47.22 44.76 42.85 40.54 40.17
41.67 41.19 41.28 43.22 41.82 42.10 43.57 42.84 46.24 47.53 47.72 49.05 49.57 50.07 50.91 51.70 52.25 51.85 51.05 50.92 50.33 50.90 51.58 52.17 52.70 53.97 55.17 55.30 55.85 55.72 54.76 50.95 53.37 51.64 50.89 50.97 51.81 52.42 52.05 49.65 49.48 47.19 49.11 48.43 46.42 44.82 41.79 40.23 40.73
41.15 40.58 40.77 40.23 40.86 41.95 41.04 41.33 44.39 46.93 46.99 47.71 48.88 49.90 50.60 51.07 51.35 52.29 50.35 49.86 50.51 50.23 50.82 51.28 52.20 53.45 54.24 55.06 55.02 49.85 46.49 45.93 46.36 46.71 46.27 46.47 48.72 46.95 47.40 47.15 45.64 47.10 48.89 48.93 47.81 45.66 43.62 39.06 41.06
38.86 42.40 41.44 39.73 39.31 36.89 40.33 35.30 42.30 44.98 45.48 46.19 48.30 49.87 50.25 50.54 50.99 51.14 51.58 49.38 49.70 50.49 51.49 51.49 51.92 52.69 53.48 54.44 51.65 51.39 49.50 48.92 49.59 48.57 45.17 44.44 46.24 45.67 44.29 41.57 42.57 45.77 49.02 49.12 48.62 46.48 45.41 43.40 39.93
40.62 41.23 40.60 39.41 39.32 37.67 38.73 35.59 40.53 41.74 42.25 45.03 47.63 49.38 50.74 51.65 51.43 50.68 50.35 49.92 50.32 50.56 50.57 50.98 51.43 51.90 52.50 53.52 52.63 52.82 52.64 53.13 49.61 47.09 43.26 42.47 42.22 42.49 41.04 39.79 41.31 43.78 46.44 49.72 48.05 45.58 45.01 44.14 43.91
41.37 40.81 39.75 39.33 38.88 33.09 38.75 36.92 38.72 41.83 43.16 45.22 47.16 48.65 49.98 50.65 50.24 49.75 49.92 49.06 48.93 49.43 49.29 50.02 50.25 50.57 51.69 51.58 52.09 52.17 52.34 52.84 49.97 45.42 42.76 41.15 41.35 39.28 37.85 36.96 39.12 41.82 43.97 47.23 46.75 45.32 43.81 44.23 43.61
41.03 39.97 33.60 32.03 31.12 31.76 35.72 34.77 39.10 43.37 44.40 45.05 46.74 48.32 48.78 48.31 49.14 49.39 48.56 47.12 46.63 46.37 47.39 48.52 49.15 48.96 50.43 50.26 51.14 51.75 52.23 50.78 50.00 48.99 46.45 42.19 40.95 40.53 36.29 35.85 35.54 38.02 40.82 44.99 45.23 43.88 42.57 42.09 41.09
38.81 40.11 34.51 28.32 28.80 33.65 32.06 32.01 39.55 44.66 45.84 45.39 46.32 47.25 47.75 46.66 48.40 49.26 49.69 48.45 46.79 45.66 46.73 47.59 47.66 48.07 49.32 49.20 50.19 51.09 52.29 50.12 50.19 48.84 48.62 45.83 44.43 41.42 38.59 35.02 35.26 36.47 38.69 42.09 41.77 41.43 40.18 39.12 38.74
37.92 35.04 41.50 35.23 27.47 30.25 35.94 39.46 43.18 43.82 43.15 44.48 45.26 47.22 47.90 48.19 48.20 48.56 49.12 47.91 46.27 45.73 46.17 47.02 47.19 47.51 48.38 48.18 49.52 49.43 49.75 48.67 47.91 45.86 46.82 44.84 42.75 38.45 34.93 34.29 33.89 34.20 34.72 38.67 38.35 37.68 35.38 36.85 36.64
39.97 42.21 34.48 35.00 28.97 27.13 33.93 35.52 37.20 41.87 44.07 46.05 44.74 45.91 47.42 48.17 48.47 49.07 48.32 47.02 45.50 45.92 46.40 46.89 47.45 46.94 47.85 47.45 48.29 47.59 46.78 46.99 44.49 43.07 42.36 41.94 40.61 37.16 32.89 32.59 32.53 33.11 33.21 36.47 36.55 35.71 35.26 34.86 34.59
37.27 36.60 36.79 37.04 34.64 30.51 29.63 35.09 43.86 43.50 44.98 44.15 45.68 45.41 47.28 47.85 47.40 48.09 47.41 45.27 44.70 44.99 45.50 45.96 46.48 46.37 46.53 46.15 47.02 46.48 46.11 44.27 43.39 42.11 42.51 39.85 37.69 33.67 31.91 31.56 31.65 31.64 31.57 34.94 35.06 34.13 33.80 33.35 32.10
41.02 39.66 38.92 33.45 30.67 33.07 32.83 35.12 42.09 44.49 45.17 44.44 45.35 45.16 46.72 46.68 46.75 46.14 45.60 44.29 43.58 43.70 44.46 45.03 45.91 45.81 46.16 45.80 46.09 45.17 44.81 43.66 41.82 40.94 41.16 38.57 35.38 32.81 31.08 30.71 30.41 30.69 30.75 33.74 34.02 32.23 32.42 31.99 30.93

GFSSGP_sfc_wetblb_063.txt.gz
Wetbulb
65.53 62.30 62.71 60.94 52.49 50.45 47.03 47.02 50.59 49.01 50.78 53.24 55.17 52.54 52.18 53.42 50.38 51.27 67.75 69.78 69.62 68.81 69.71 69.76 71.51 71.81 71.33 71.27 71.55 71.11 70.27 68.89 68.40 67.82 67.38 67.00 66.90 66.94 67.14 67.98 69.20 70.32 70.20 69.46 68.63 67.37 66.44 65.76 65.71
61.73 59.94 61.00 57.30 49.28 45.68 45.84 49.41 47.92 50.38 53.37 53.80 54.12 54.07 53.45 54.38 60.32 63.50 66.15 69.63 70.39 70.35 70.61 70.24 70.61 72.18 71.68 71.58 71.40 70.99 70.21 69.08 68.52 67.94 67.12 66.24 65.91 65.96 66.46 67.46 68.10 69.13 69.28 68.63 67.24 66.51 65.69 65.34 65.70
60.79 58.16 56.90 53.50 49.69 45.39 45.65 48.69 50.27 52.04 54.10 53.32 52.75 55.79 55.19 56.39 61.54 65.50 69.39 69.97 70.51 70.53 71.08 70.92 71.11 72.36 71.97 71.29 70.96 71.00 70.46 69.48 69.11 68.85 68.24 66.42 65.29 65.15 65.86 66.57 67.05 67.47 67.45 66.62 65.70 65.21 64.96 65.03 65.44
59.59 58.10 55.87 49.42 46.99 48.53 47.96 49.57 51.46 52.55 51.76 52.84 54.03 52.35 57.16 61.76 64.55 66.77 69.68 70.05 70.00 70.27 71.13 69.97 71.84 72.49 72.10 71.54 71.42 70.89 69.97 69.62 69.39 68.98 68.32 67.01 64.96 64.45 65.04 65.43 65.96 66.37 65.81 64.74 63.91 63.79 64.03 64.31 64.64
59.16 56.64 50.36 48.16 47.63 48.92 49.87 50.77 52.26 51.39 51.33 51.86 53.48 51.69 54.84 60.93 65.10 67.97 69.32 69.62 69.38 69.96 70.81 70.23 71.14 71.61 71.84 71.80 71.10 71.07 70.67 69.99 69.32 68.69 67.96 67.09 65.60 64.16 64.22 64.35 64.51 64.46 63.49 62.54 62.35 62.66 63.11 63.49 63.42
54.26 54.87 47.88 46.30 47.36 48.93 50.05 51.10 52.26 51.34 51.00 52.53 51.49 52.10 55.39 62.88 64.10 67.16 69.42 69.42 69.99 69.84 70.49 69.82 67.92 69.03 70.19 71.19 70.78 70.63 70.67 70.46 69.57 68.56 67.76 67.09 66.32 65.03 64.33 63.58 63.46 63.25 62.20 61.56 61.19 61.82 62.44 62.77 62.56
53.66 51.34 47.90 48.06 46.70 47.52 49.36 51.93 51.55 51.22 50.27 50.96 53.77 50.82 56.00 60.27 63.90 67.28 68.70 69.56 69.55 69.40 69.80 69.91 70.09 69.05 67.40 68.89 69.08 69.36 69.76 69.92 69.49 68.98 68.34 67.64 66.95 66.30 65.38 64.62 63.33 62.50 61.65 60.75 60.49 61.19 61.92 62.41 62.56
54.46 51.97 48.15 48.23 46.66 46.28 50.41 51.40 52.64 51.65 49.98 53.74 55.31 51.04 51.81 58.97 64.51 67.16 68.37 68.50 68.66 68.67 69.16 69.08 69.62 70.06 69.55 69.73 66.42 67.33 68.23 68.48 68.60 67.77 66.49 65.55 65.42 64.94 64.40 63.21 63.31 62.35 61.39 60.64 60.25 60.65 61.67 61.86 61.54
53.56 48.25 45.99 47.31 47.18 47.65 50.64 49.77 50.85 52.37 51.23 52.22 54.24 53.20 56.62 61.09 64.35 65.60 66.15 66.93 67.52 67.49 69.15 69.70 68.98 69.19 69.12 69.15 67.58 65.57 66.11 66.45 66.19 65.34 63.47 63.28 64.88 64.31 63.95 62.00 62.57 61.84 61.04 60.56 60.45 60.57 60.44 59.51 59.49
51.20 48.06 47.60 50.03 50.05 49.02 49.99 50.16 50.73 49.44 50.04 50.69 51.91 53.59 56.76 61.63 62.35 62.87 63.50 64.04 65.60 67.01 68.28 68.17 69.14 69.44 69.62 69.06 69.28 69.35 69.18 69.04 68.56 67.38 65.78 65.97 65.29 64.87 63.34 60.17 60.53 60.94 60.29 59.29 59.00 59.20 59.56 59.73 59.08
50.71 47.87 49.07 48.70 49.50 50.05 49.87 49.13 50.89 49.30 48.73 51.16 51.20 52.96 54.40 60.05 60.87 61.39 62.81 63.71 64.86 66.49 67.76 68.53 68.24 69.43 69.59 69.14 69.77 69.74 69.72 69.50 69.03 67.90 67.26 66.47 64.71 64.61 63.02 61.13 59.74 58.46 57.11 56.39 56.34 57.00 57.71 58.30 58.23
46.16 47.75 48.22 49.45 50.12 49.13 48.74 50.50 49.02 49.72 51.17 52.87 53.98 54.46 54.07 58.17 59.63 60.76 62.07 63.30 64.35 65.50 66.76 67.66 68.79 68.91 69.46 69.73 69.26 69.56 69.26 69.56 68.91 68.44 67.90 67.43 66.51 64.31 62.99 62.09 61.53 60.42 60.09 58.95 58.39 56.80 56.77 56.14 56.05
46.63 47.28 47.94 49.49 49.11 49.24 48.78 48.63 49.32 50.24 52.68 52.81 52.13 52.10 53.65 56.12 59.11 61.28 62.86 64.06 64.94 64.70 65.92 66.84 68.12 68.27 68.56 68.51 68.68 69.13 69.01 69.26 69.65 69.35 68.45 67.91 65.58 64.47 63.59 62.92 61.10 59.41 59.77 59.22 57.21 56.03 54.39 53.43 53.32
48.66 48.18 48.23 49.06 49.13 49.02 47.50 48.78 48.36 50.68 53.04 52.66 51.65 51.61 52.90 53.99 56.98 59.84 61.48 62.69 64.18 65.45 65.64 66.62 66.87 67.29 67.64 67.32 67.79 68.15 68.49 68.68 68.70 69.25 67.82 66.55 65.33 64.44 63.03 60.91 59.65 58.79 58.85 57.24 54.75 52.44 49.59 50.27 50.29
48.53 46.09 47.55 48.03 48.55 47.95 48.81 46.19 46.62 50.72 50.94 50.79 51.46 51.78 52.71 53.28 54.94 57.58 60.69 62.01 64.02 65.58 65.66 65.77 65.78 66.21 66.38 65.80 66.67 67.17 68.39 68.11 68.65 68.82 68.21 66.22 65.35 64.35 62.63 60.44 58.75 58.47 56.59 54.71 51.20 48.87 48.29 47.64 47.17
46.28 46.52 43.22 47.73 47.73 48.23 48.02 43.01 49.22 50.60 50.68 49.98 51.07 52.02 52.50 53.05 53.56 55.66 59.12 61.46 63.39 64.80 64.66 65.31 63.94 64.01 64.65 64.98 65.62 65.72 66.77 67.46 67.98 68.34 68.17 67.30 65.23 64.75 62.36 60.01 58.40 57.91 53.87 51.03 48.71 47.31 46.33 45.65 45.56
45.98 41.51 43.20 45.06 47.86 47.29 46.62 45.39 49.62 49.73 49.10 49.09 50.54 51.41 52.06 52.87 53.68 54.37 56.54 59.10 60.87 63.24 63.76 64.08 63.10 61.68 62.61 63.36 64.53 65.13 65.94 65.91 66.75 67.20 67.01 66.31 65.95 64.22 62.29 60.36 57.54 55.04 52.77 50.23 48.44 47.91 46.99 44.36 44.44
41.72 41.92 43.03 43.01 45.84 45.50 45.38 45.21 48.35 50.25 49.90 49.60 50.94 51.77 52.28 52.26 52.73 54.51 54.77 56.96 59.40 61.69 62.47 62.37 61.66 60.55 60.99 61.53 61.66 62.46 63.71 62.47 64.75 65.07 63.96 63.90 63.10 62.71 61.10 59.11 56.02 55.08 52.92 51.77 50.16 47.81 46.22 44.05 43.25
43.88 42.85 42.30 44.34 45.66 44.02 44.58 44.96 46.84 49.10 49.47 49.42 50.09 50.60 50.98 52.03 54.35 54.98 55.34 55.52 57.12 58.43 58.22 58.69 58.54 58.39 58.72 58.15 57.91 58.33 57.99 57.71 59.67 61.43 61.26 61.83 61.40 60.73 59.79 56.62 54.21 53.23 51.21 50.09 48.91 47.00 43.65 41.63 42.34
43.75 42.12 42.09 44.88 45.43 43.07 44.14 43.79 46.86 48.19 48.73 49.61 49.91 50.37 51.12 52.10 53.12 54.68 55.01 55.12 54.48 55.65 56.67 56.25 56.05 56.25 56.58 57.59 58.07 58.16 57.76 56.96 56.59 57.02 56.92 57.99 57.22 58.22 56.68 54.46 52.52 51.74 49.80 48.33 46.93 44.46 42.14 40.61 41.46
42.87 41.75 41.98 41.94 43.72 44.58 43.05 42.22 44.76 47.85 49.23 49.96 50.43 51.42 51.46 52.06 52.40 53.57 54.98 54.37 54.87 53.78 54.86 55.08 55.43 55.80 56.26 56.95 57.18 57.15 56.51 55.19 52.70 52.52 52.91 52.39 53.84 54.62 54.14 52.48 51.00 50.52 50.57 47.68 45.72 43.48 42.26 39.93 40.65
39.45 44.78 43.45 42.21 40.52 37.24 43.28 36.09 42.81 45.46 46.25 48.32 49.69 50.68 51.09 52.25 52.93 53.11 54.18 54.58 54.15 54.22 54.92 54.86 55.13 55.26 55.81 56.68 55.69 55.37 52.31 50.89 52.60 53.90 51.62 49.73 50.13 50.27 51.27 51.07 51.11 51.10 51.06 47.99 45.51 44.55 43.88 42.87 39.13
41.75 43.76 42.57 42.05 40.66 40.13 40.33 37.01 41.14 44.96 43.99 46.21 48.50 50.32 51.69 52.83 53.48 53.51 53.87 54.16 54.44 54.75 54.80 54.87 54.61 54.64 55.09 55.59 55.63 54.95 51.96 53.90 54.63 54.42 50.95 49.93 48.08 48.37 46.27 44.27 46.03 48.20 49.58 48.12 46.76 45.26 45.05 44.12 42.16
44.45 43.04 42.45 42.11 40.68 33.50 39.29 38.46 39.25 42.57 44.28 46.43 48.59 50.10 51.36 52.00 52.80 53.07 53.77 54.43 53.64 54.95 54.34 54.31 53.52 53.30 54.28 54.68 54.93 54.32 52.83 53.79 54.30 52.64 51.54 47.85 46.08 43.74 44.44 43.88 44.91 45.81 47.47 48.21 47.56 45.65 45.81 44.91 44.65
43.10 40.53 34.08 32.89 32.75 32.25 39.20 37.58 40.50 44.51 46.20 47.22 47.51 49.12 50.70 51.38 51.29 51.97 51.49 50.30 50.84 51.70 51.88 52.20 52.20 51.88 53.14 53.61 53.71 54.00 53.65 54.41 54.34 51.78 49.95 47.59 44.21 41.66 40.00 40.42 42.40 45.12 46.41 48.19 47.28 44.97 45.07 45.25 44.73
40.10 40.57 35.01 28.68 30.96 34.52 35.43 33.67 39.95 46.76 48.25 48.28 48.29 49.01 50.06 50.55 50.65 50.82 52.33 52.48 51.04 50.13 50.24 50.32 50.37 50.98 51.98 52.57 52.73 53.02 53.50 53.70 54.38 53.94 50.92 47.29 46.31 44.60 41.39 39.86 40.31 41.76 43.31 44.47 45.29 43.63 42.96 44.45 43.86
39.74 36.56 42.89 36.53 34.03 31.65 36.20 40.22 44.23 46.43 45.21 46.76 47.49 48.26 48.99 50.51 51.68 50.83 51.56 52.39 51.46 49.54 49.27 49.72 49.66 50.01 51.05 51.50 52.09 51.66 52.64 52.95 53.10 52.47 53.38 50.72 48.32 46.68 43.53 40.18 38.18 38.61 39.91 41.52 42.60 41.31 40.34 41.36 40.41
41.20 43.27 34.92 35.83 29.52 27.37 33.91 36.23 37.98 43.43 44.90 46.63 47.00 47.89 49.21 50.56 50.89 51.30 51.56 51.56 50.16 49.81 49.66 49.79 49.99 49.37 50.01 50.75 51.17 50.59 51.58 52.20 53.09 51.99 51.10 50.42 49.82 44.79 41.41 37.83 36.09 35.61 37.06 37.06 38.37 37.05 35.58 37.97 37.03
38.33 36.95 38.13 38.56 36.15 30.56 29.73 35.15 44.42 44.28 45.77 46.06 47.74 48.53 49.10 50.05 50.28 50.14 51.13 50.10 49.19 48.80 48.84 48.80 48.87 48.81 48.96 49.84 49.82 49.72 50.37 50.81 50.82 50.21 48.98 47.01 45.13 40.82 38.01 36.51 34.20 33.80 34.48 34.72 35.48 34.84 34.54 34.62 33.88
42.49 39.68 39.36 33.58 31.93 34.95 33.37 34.92 46.04 46.21 46.20 47.09 46.83 48.48 49.43 49.74 49.84 49.50 49.28 48.74 47.62 47.50 47.82 47.96 48.35 48.29 48.76 49.16 48.68 48.39 49.17 48.61 48.10 47.54 46.19 44.34 41.72 38.56 37.60 35.80 34.75 34.11 32.71 32.89 33.82 32.58 33.18 32.52 31.53

GFSSGP_sfc_wetblb_069.txt.gz
Wetbulb
60.11 56.81 56.45 53.49 45.16 41.44 36.67 39.38 42.50 44.95 44.39 46.48 48.33 48.51 49.64 50.26 52.47 47.96 62.44 65.16 66.64 66.57 68.03 69.62 70.95 70.51 70.24 71.41 70.52 70.14 69.82 68.36 68.12 68.06 68.07 68.37 69.09 69.98 70.66 69.85 69.97 68.20 67.57 67.18 66.87 66.69 67.34 67.28 67.46
57.38 56.95 53.20 48.03 40.73 34.91 36.18 40.29 42.69 44.39 46.31 48.47 50.07 49.17 49.11 50.63 58.87 60.28 60.42 65.68 66.88 66.65 68.06 69.50 70.23 71.01 70.66 71.11 70.44 70.01 69.25 67.86 67.40 67.21 67.33 67.86 68.40 69.46 70.20 68.83 68.94 67.38 66.92 66.66 66.73 66.97 67.21 67.06 67.69
57.06 55.75 47.94 45.00 38.57 35.46 37.01 41.25 44.59 46.24 47.88 47.54 47.22 49.76 50.60 53.04 60.45 61.61 64.58 66.41 66.77 66.46 68.05 69.30 70.30 71.29 71.18 71.19 70.56 70.04 69.65 68.47 67.38 66.89 66.90 67.59 67.89 68.50 68.62 68.08 66.93 66.55 66.15 66.24 66.49 66.84 66.85 66.48 66.43
53.03 51.05 46.96 40.65 37.60 39.42 40.60 44.06 46.24 45.38 46.57 48.62 48.87 48.26 52.80 55.64 62.65 64.17 66.13 66.46 66.38 66.73 68.23 69.35 70.74 71.37 71.40 71.13 70.66 70.06 69.44 68.53 67.68 66.66 66.55 67.27 67.32 67.59 67.56 66.65 65.83 65.44 65.42 65.73 65.77 66.07 65.93 65.56 67.06
50.88 47.67 41.58 39.73 38.89 41.33 42.50 46.12 47.23 44.93 44.98 44.99 46.91 47.36 50.49 59.13 64.57 65.48 65.98 66.73 66.71 67.11 68.03 69.92 70.51 71.11 71.32 71.21 70.79 70.41 69.04 68.63 67.96 66.35 66.13 66.40 66.43 66.75 66.39 65.17 64.43 64.36 64.64 64.88 64.80 65.35 64.87 65.46 65.87
46.78 45.50 38.79 36.63 38.95 42.50 42.21 45.67 47.31 44.70 45.51 45.78 45.03 47.96 50.56 59.72 63.23 64.05 65.34 65.25 68.04 67.83 69.33 69.96 68.30 69.29 70.14 70.64 70.54 70.21 69.23 68.66 68.19 66.41 65.76 65.76 65.52 65.65 64.85 63.91 63.47 63.83 64.16 64.17 64.22 64.49 65.20 65.75 65.77
45.16 42.94 37.58 38.73 38.44 40.20 43.10 45.22 44.58 43.92 45.36 45.66 48.26 45.12 51.36 56.57 62.17 64.45 64.50 65.45 67.88 68.28 68.86 69.20 69.36 68.57 67.49 68.24 68.66 69.17 69.25 68.81 68.31 67.78 66.68 66.12 65.73 65.70 64.46 63.76 62.78 63.32 63.67 63.61 63.67 64.44 64.87 64.95 64.76
45.69 43.67 39.04 37.78 38.95 39.62 43.43 44.38 45.16 44.69 43.09 47.24 47.94 44.67 48.39 55.22 61.59 63.99 64.00 63.84 66.86 66.19 66.97 67.42 67.60 68.21 68.46 67.89 65.87 66.66 67.39 67.60 67.47 66.59 65.32 64.31 64.35 64.19 63.60 62.43 62.86 62.76 63.16 63.15 63.61 63.77 63.69 63.71 63.22
45.46 39.39 36.68 39.03 40.07 41.24 44.45 42.73 44.84 45.11 46.33 45.23 47.86 47.63 50.70 57.89 61.72 61.86 61.43 61.24 65.13 65.98 66.00 66.19 66.30 67.04 67.57 67.26 65.40 64.79 65.33 65.27 64.73 63.71 62.20 60.91 60.35 60.03 59.86 60.74 62.23 62.50 62.65 62.78 62.98 62.09 61.56 61.24 61.37
42.34 37.52 39.36 42.04 41.04 41.99 44.18 43.67 44.30 42.89 42.84 42.27 44.02 46.56 54.48 59.20 59.27 59.07 59.30 59.06 61.23 62.18 64.97 66.44 66.18 66.23 66.39 67.94 65.75 65.89 65.87 65.18 64.09 62.86 61.29 60.87 59.75 59.44 59.66 58.81 60.80 61.83 61.95 62.24 61.87 61.21 59.78 56.60 54.21
42.35 39.76 42.08 43.27 44.94 44.96 44.32 42.30 44.43 42.86 40.05 43.87 45.47 46.86 55.40 56.85 57.32 58.20 58.80 58.98 61.20 61.82 63.44 65.52 66.30 66.17 65.71 66.54 66.36 66.43 65.95 65.08 63.84 62.26 61.52 61.11 59.39 58.49 57.53 56.46 55.93 56.63 57.36 58.24 58.24 55.05 53.96 53.11 52.40
39.04 42.67 43.55 46.04 46.38 44.67 42.89 44.85 42.26 43.11 43.39 45.91 46.74 48.85 54.65 55.24 56.57 57.44 58.23 58.98 59.69 61.78 62.56 64.59 66.61 66.02 66.32 66.47 66.81 66.51 66.16 65.54 64.19 62.73 62.18 60.90 59.33 57.77 55.94 55.54 54.23 53.14 52.49 51.46 52.37 51.69 51.46 50.89 50.45
39.51 41.34 44.01 45.30 44.47 42.83 44.74 41.96 42.59 42.79 45.34 45.27 47.92 49.48 54.06 55.24 55.49 56.06 57.95 58.75 59.30 60.60 62.51 63.65 65.10 65.95 66.15 65.61 66.11 66.39 65.94 65.68 65.26 64.26 63.67 62.48 60.57 57.47 56.05 55.25 54.96 53.99 52.26 52.47 50.94 50.11 49.76 48.14 47.79
42.73 42.94 42.54 44.24 43.77 43.51 42.10 41.14 41.57 44.48 45.29 44.15 46.09 46.58 49.46 53.18 54.59 53.95 54.87 58.12 57.95 60.35 61.76 62.57 63.79 64.95 65.87 65.91 66.20 65.70 65.94 65.90 65.47 64.74 63.91 63.49 62.16 59.13 56.89 56.40 55.78 54.97 55.66 54.39 52.03 49.91 47.56 45.31 45.35
43.38 38.85 40.44 41.96 43.10 42.00 42.97 38.51 41.19 43.53 44.36 44.48 44.13 43.43 46.05 49.25 52.43 54.38 56.37 56.62 58.99 59.92 61.77 62.03 63.04 63.58 63.72 64.86 65.28 65.54 65.90 65.83 65.41 65.05 64.31 64.28 63.27 60.46 58.56 58.48 57.50 57.04 54.87 53.08 50.05 47.58 45.55 43.94 42.37
38.87 38.28 33.79 40.28 42.63 42.39 40.50 33.67 41.24 43.43 42.97 43.78 43.04 42.23 43.49 45.44 48.21 52.52 54.56 56.48 56.53 58.07 59.71 62.41 63.67 63.31 63.39 63.77 64.18 64.95 65.30 65.81 65.75 65.34 65.08 64.35 63.25 61.71 60.13 58.65 57.42 56.22 52.87 50.67 48.52 46.11 43.52 41.85 40.89
35.89 30.89 33.10 37.63 42.56 41.94 39.34 35.40 42.47 43.99 42.17 40.91 41.78 42.90 43.33 43.68 45.23 47.77 51.53 55.68 56.50 58.04 59.81 60.57 62.58 62.61 62.65 62.11 62.39 62.37 63.33 64.05 65.16 65.45 65.04 64.31 63.54 62.25 60.54 59.03 57.48 54.81 51.13 49.52 47.58 45.34 42.66 40.21 38.64
31.88 31.90 34.90 34.10 39.96 39.96 37.58 37.60 41.04 43.45 43.04 43.00 42.45 42.82 43.09 43.50 45.30 47.31 48.65 52.44 56.34 57.02 59.12 60.96 61.71 62.52 62.46 61.56 60.37 60.10 60.07 61.45 63.43 63.91 64.54 63.97 63.87 62.46 61.08 58.67 56.50 53.66 50.19 48.01 46.59 44.77 42.88 40.34 39.04
36.86 34.51 32.77 35.42 40.38 38.54 37.50 37.42 39.92 42.15 40.58 39.76 40.61 41.57 42.47 44.05 46.80 46.00 48.06 49.55 52.10 55.63 57.36 60.05 60.10 60.34 61.60 60.61 59.25 58.61 60.25 59.94 59.18 60.93 63.29 64.01 63.97 63.18 61.71 59.13 56.32 53.62 50.46 48.13 46.50 44.69 41.34 39.66 38.03
36.52 33.77 32.96 36.52 39.51 37.28 36.92 37.41 39.81 40.41 42.08 42.62 42.91 40.79 41.84 42.38 44.60 46.04 45.53 46.04 48.93 54.50 56.51 59.13 60.25 59.68 60.82 61.70 61.65 60.86 58.16 55.17 58.02 56.16 58.17 63.52 63.69 63.20 61.95 59.44 56.04 54.00 51.81 48.43 46.09 45.14 41.04 39.44 38.12
35.54 33.60 33.26 34.82 36.50 36.05 33.76 32.62 35.82 40.04 40.84 42.15 42.25 42.83 42.96 43.69 44.00 44.24 44.75 44.86 47.87 50.25 53.33 57.00 59.50 59.43 60.03 59.81 56.02 52.94 52.67 51.33 52.87 53.17 54.29 57.40 60.44 61.72 61.43 58.88 56.35 54.39 53.07 49.06 46.78 44.96 42.70 38.62 37.92
33.74 37.64 37.96 36.45 33.07 28.71 35.06 25.75 33.16 38.68 40.12 39.35 41.65 41.30 42.44 42.70 43.41 43.93 44.90 43.96 44.88 49.37 52.42 55.52 57.23 57.88 58.46 56.86 55.86 56.26 56.25 55.46 56.29 57.31 56.33 52.58 55.45 58.22 59.33 57.70 56.08 54.71 54.05 51.46 47.93 45.95 43.95 42.01 37.22
36.21 39.30 37.05 35.80 32.37 30.55 30.12 26.90 31.89 34.83 35.38 38.55 39.77 40.41 41.63 42.83 42.92 44.17 44.82 45.18 45.45 47.00 47.66 49.52 50.73 53.30 55.19 55.48 55.52 55.01 54.81 54.43 47.34 48.34 49.35 50.11 49.69 53.50 54.00 55.61 55.02 54.40 54.10 52.46 49.29 46.24 45.22 42.98 40.63
40.83 38.40 37.59 34.96 32.04 24.25 30.84 30.12 27.91 33.50 36.29 36.69 38.80 40.70 42.36 43.11 46.32 45.89 46.29 45.85 45.33 44.27 44.67 46.55 48.31 48.57 50.12 53.22 52.17 52.41 52.70 47.48 46.48 46.35 48.24 48.40 47.55 49.88 51.52 51.93 53.38 54.08 53.44 52.20 49.48 46.75 45.16 42.25 42.96
37.54 33.29 25.01 24.01 23.15 23.10 29.79 27.43 32.15 36.97 39.11 38.94 39.52 39.41 39.86 42.86 44.01 44.02 44.33 44.41 44.34 44.46 44.66 45.09 46.44 47.32 47.19 48.43 50.07 48.81 49.62 48.51 48.60 47.49 48.14 47.25 48.87 49.27 50.42 50.62 51.29 52.04 52.47 51.97 49.90 47.29 45.32 43.23 42.60
35.14 33.43 25.67 20.40 21.73 24.30 28.93 26.53 33.99 38.79 40.19 39.80 40.25 41.32 40.43 40.40 41.49 42.51 43.11 43.75 43.53 43.16 44.45 45.21 45.08 44.93 45.98 46.74 47.92 49.18 48.76 49.95 49.80 48.42 49.35 48.57 48.16 48.41 49.41 48.87 50.61 50.76 51.09 51.03 49.61 47.13 45.71 44.77 43.37
34.35 31.97 35.96 28.87 18.35 21.80 27.16 31.20 37.10 39.67 39.40 41.41 40.57 40.98 41.99 43.29 43.70 44.20 43.86 43.38 43.94 42.91 43.49 44.53 44.84 45.13 45.39 46.10 46.70 47.37 48.93 48.05 48.68 47.35 48.95 49.28 47.21 46.44 44.78 46.94 47.77 48.13 48.06 48.60 48.72 46.76 45.03 44.12 42.31
36.12 38.15 29.82 28.48 18.64 17.49 23.99 26.67 31.22 35.31 37.33 40.38 41.20 40.74 41.13 41.83 43.12 43.15 43.18 43.32 43.34 42.99 43.26 43.46 43.92 44.09 44.80 44.89 45.70 46.84 47.34 47.82 47.38 46.75 46.48 47.19 45.88 44.96 42.70 42.51 45.23 46.06 46.64 47.19 47.50 46.28 44.93 43.92 42.97
32.83 31.39 32.77 33.08 28.67 22.16 19.50 26.72 35.10 36.87 39.55 38.60 39.75 41.71 41.59 42.79 43.14 43.29 43.20 42.97 43.14 43.12 43.22 43.26 43.30 43.61 43.48 44.12 44.50 44.97 45.19 45.77 46.02 46.64 46.34 46.12 44.02 43.68 41.65 41.16 42.15 43.61 44.09 44.94 45.82 45.57 44.14 43.04 42.31
34.60 33.44 33.69 26.88 25.18 26.54 25.60 30.55 37.86 38.37 38.80 40.11 40.27 41.74 42.01 42.67 43.65 42.87 42.77 42.50 41.96 42.36 42.28 42.78 42.99 42.91 43.33 43.64 43.79 43.85 44.50 44.56 44.82 46.02 45.95 44.16 44.10 41.93 41.24 39.91 39.68 40.36 41.51 42.07 43.36 41.81 41.12 41.20 38.86

GFSSGP_sfc_wetblb_072.txt.gz
Wetbulb
57.46 54.29 54.41 52.67 44.25 39.66 35.06 37.28 40.60 42.82 42.41 45.36 47.01 49.69 48.84 50.09 51.67 44.05 61.41 64.76 64.77 65.14 67.90 69.00 70.25 70.75 70.79 70.00 70.04 70.09 69.16 68.39 68.34 68.39 69.16 69.71 70.72 70.34 69.57 68.25 67.82 67.09 66.83 67.20 67.86 67.73 67.58 67.53 67.98
56.69 55.00 51.99 46.33 38.91 33.62 35.06 38.70 41.61 42.71 45.26 47.31 48.92 48.47 49.55 50.73 58.49 58.74 61.02 65.07 65.14 65.99 67.81 69.17 70.01 71.09 71.02 70.49 70.03 69.47 68.22 67.70 67.73 67.85 68.43 69.53 70.17 69.37 68.49 67.83 67.05 66.62 66.60 67.17 67.80 67.72 67.48 67.62 68.35
55.48 53.56 47.18 42.98 35.83 34.22 35.91 40.16 42.93 44.30 45.91 45.87 46.13 49.84 50.88 54.70 58.53 59.71 61.93 65.87 66.00 66.02 68.05 69.03 70.02 71.17 70.88 70.42 69.94 69.31 68.15 67.40 67.21 67.58 67.90 68.82 69.57 68.53 67.70 67.07 66.46 66.29 66.39 66.99 67.54 67.17 66.75 67.17 67.36
51.55 49.61 45.47 39.16 35.61 38.60 39.88 43.05 43.62 44.16 44.23 47.28 47.90 49.12 51.98 56.95 60.43 62.09 65.05 65.81 65.06 65.96 67.97 68.85 70.51 71.19 71.09 70.55 69.42 69.02 68.36 67.34 67.05 67.39 67.62 67.90 68.46 67.56 66.60 66.20 65.85 65.78 65.90 66.62 66.98 66.22 67.44 67.62 67.27
49.04 46.11 40.11 37.35 37.26 39.55 40.52 43.75 43.96 42.67 42.89 44.69 47.59 46.55 51.28 59.74 63.00 64.28 64.60 65.65 64.54 65.66 67.69 68.94 70.17 70.84 70.99 70.61 69.63 69.01 68.47 67.59 66.82 67.13 67.15 67.27 67.59 66.62 65.61 65.22 65.14 65.18 65.06 66.02 66.00 65.86 66.30 66.79 66.10
45.54 44.27 38.10 34.70 36.29 40.25 41.39 45.39 44.93 42.00 42.58 43.90 46.62 48.88 51.64 59.97 62.74 63.61 64.66 64.88 65.90 66.14 68.10 68.94 67.88 69.08 69.92 70.17 69.98 69.44 68.74 68.05 66.90 66.57 66.44 66.55 66.44 65.33 64.47 64.41 64.47 64.60 64.44 65.17 65.55 65.97 65.68 65.16 64.73
45.16 41.39 36.41 36.90 36.58 38.60 41.93 44.77 43.47 43.69 42.67 43.79 47.53 46.22 49.75 56.19 62.57 63.50 64.32 66.17 66.56 67.44 68.40 68.55 68.80 68.19 67.25 68.20 68.37 68.48 68.35 68.14 67.14 66.99 66.77 66.49 66.03 64.99 63.97 64.19 64.17 64.11 64.08 64.74 65.30 65.55 65.32 65.04 64.52
45.12 42.69 36.72 37.67 37.70 38.54 42.25 43.41 44.48 42.88 43.38 45.70 48.65 46.94 48.52 55.72 61.70 62.99 64.29 66.65 67.22 67.71 68.17 67.91 67.85 68.10 67.99 67.55 65.48 66.12 67.10 67.22 66.73 66.10 64.93 64.12 64.29 64.02 63.41 62.74 63.92 63.61 63.69 64.38 64.53 64.47 64.28 64.08 63.39
44.43 39.21 35.71 36.56 38.50 40.00 42.51 42.49 42.94 44.44 44.55 44.13 45.60 47.66 50.13 57.82 61.64 61.36 60.76 64.29 65.46 66.42 66.95 67.18 66.94 67.27 67.42 66.77 65.06 64.46 64.87 65.12 64.50 63.43 61.86 60.53 59.68 59.32 58.62 60.38 63.19 63.30 63.61 63.62 63.56 63.15 62.58 61.55 60.83
41.09 36.89 38.47 40.23 39.61 39.81 42.48 41.99 44.06 42.44 41.76 44.33 44.47 48.71 54.18 58.38 60.08 60.58 59.03 60.31 62.56 63.24 64.63 66.04 66.18 66.47 66.88 67.40 65.18 65.25 64.83 64.18 62.78 61.64 59.85 59.01 58.41 58.16 58.56 58.46 61.27 62.54 62.64 63.02 62.15 60.64 59.12 56.15 53.79
41.01 38.32 41.03 41.81 42.88 43.62 42.71 40.57 42.41 41.63 39.20 43.28 44.79 47.78 54.72 56.83 58.45 60.36 59.31 59.79 61.63 63.07 64.06 64.90 65.60 65.99 66.29 66.43 65.23 65.30 64.54 63.32 62.23 60.55 59.59 58.74 57.95 57.46 56.92 56.84 57.10 57.62 58.26 57.74 56.11 53.82 52.80 52.56 52.34
38.92 41.06 42.13 44.16 44.45 42.82 42.07 42.38 40.33 41.45 42.71 45.14 45.59 50.98 55.67 57.47 58.07 59.65 59.89 58.40 60.09 60.54 63.54 64.55 65.23 65.39 65.66 66.22 65.68 65.92 65.24 63.80 62.04 60.57 60.32 58.62 57.02 55.92 55.20 55.19 54.98 55.07 54.56 53.56 52.06 51.52 50.46 50.17 50.81
39.41 39.76 43.07 43.41 42.92 41.87 43.09 40.16 40.92 41.48 43.86 44.04 45.55 52.27 55.29 57.33 57.76 58.71 60.05 58.96 59.69 60.72 61.70 63.99 65.02 65.02 65.09 65.19 65.57 65.83 65.49 64.58 62.73 60.99 61.24 59.13 57.50 56.17 55.24 54.14 54.26 54.13 51.97 51.77 50.40 49.47 48.57 48.20 48.23
41.50 41.23 41.21 42.29 41.73 41.72 40.37 38.90 40.40 42.46 42.62 42.55 44.91 49.40 53.59 55.25 55.63 54.56 55.77 58.06 58.52 61.69 61.76 63.28 64.23 65.03 65.09 64.94 65.18 65.41 65.71 64.83 64.12 62.18 62.34 60.16 58.88 57.52 55.55 54.17 52.87 52.54 53.80 53.29 51.69 49.56 46.35 45.79 46.25
42.16 37.60 38.78 39.73 40.87 40.40 40.79 36.20 39.58 41.51 42.15 41.85 42.74 43.99 48.78 52.39 53.19 54.46 57.36 58.50 59.28 60.41 62.31 62.16 63.78 64.08 64.19 64.56 64.91 65.03 65.39 65.23 64.68 63.56 62.93 62.04 60.68 57.81 56.47 55.16 54.01 52.49 54.78 52.51 50.42 47.30 44.90 43.32 45.29
37.43 36.82 31.94 37.52 41.09 40.81 37.64 33.06 38.10 41.39 38.42 41.89 40.73 39.99 42.47 46.29 51.25 54.16 55.25 56.67 57.39 58.09 59.75 62.11 63.66 63.58 63.63 64.50 64.94 64.78 65.06 65.09 64.99 64.75 63.27 63.18 61.96 59.31 57.31 56.12 55.19 55.47 54.03 51.42 49.29 46.36 43.94 43.26 43.15
35.33 29.55 31.66 35.85 41.01 40.06 37.28 34.41 39.90 41.16 41.24 40.28 40.19 40.77 41.16 42.30 43.57 47.14 52.40 55.18 56.30 57.50 58.88 60.50 62.05 62.73 62.91 63.80 64.58 64.54 64.71 64.82 64.94 65.11 64.44 63.39 62.74 60.68 58.80 58.07 56.67 55.52 52.92 50.31 48.55 45.46 44.49 41.27 38.94
31.58 31.59 32.82 31.46 38.17 37.57 35.30 36.59 40.08 41.66 40.02 41.08 40.70 40.88 40.98 41.58 43.89 46.05 47.07 52.53 55.39 55.99 58.15 59.69 61.31 62.31 62.73 62.86 63.21 63.26 64.02 64.47 65.04 65.14 64.89 64.14 63.42 61.17 60.02 59.14 57.66 54.95 51.74 49.15 46.86 44.67 42.72 41.20 39.09
35.33 33.52 32.38 34.18 38.54 37.28 36.43 36.05 38.62 40.96 39.62 38.76 39.28 39.50 40.54 41.46 45.87 43.98 45.05 46.66 50.52 53.30 55.42 58.27 59.62 61.49 61.90 60.37 60.79 61.44 61.62 62.15 62.72 64.60 64.73 64.57 64.12 62.65 60.89 59.58 57.26 54.41 51.19 49.03 46.23 42.65 39.25 38.41 37.89
34.81 32.89 31.92 34.70 37.81 36.33 34.84 36.10 38.25 39.00 40.03 40.28 40.37 39.62 39.88 40.65 42.62 44.70 44.09 43.22 45.66 52.19 54.59 57.38 59.02 60.78 61.39 62.57 62.58 62.60 61.93 57.90 61.09 60.51 62.13 64.11 63.75 63.13 61.99 59.92 57.01 54.30 52.05 49.00 46.34 44.35 40.20 38.81 38.18
34.03 32.89 32.17 33.20 34.48 33.79 32.63 31.33 33.73 37.67 38.55 40.37 40.78 40.86 40.46 40.87 41.54 42.24 42.59 42.86 42.85 46.27 51.79 55.57 58.69 59.85 61.26 62.02 58.84 53.29 52.69 52.07 53.90 54.10 59.39 62.48 63.34 62.88 61.68 60.54 57.74 54.82 53.19 49.61 46.95 44.77 42.52 39.03 37.43
32.83 36.50 35.57 34.16 31.78 27.77 32.56 24.72 31.21 36.08 38.14 38.58 39.53 37.06 38.88 40.22 40.92 42.09 42.78 42.05 42.10 44.94 48.36 54.03 57.13 59.00 59.94 60.36 59.46 59.13 58.92 57.97 58.43 60.22 58.09 55.06 58.36 62.05 61.75 60.49 58.00 55.72 54.30 51.79 48.48 47.02 44.60 42.41 37.17
35.00 37.31 34.87 33.91 30.66 28.52 28.38 26.41 30.16 32.60 35.40 37.23 38.49 38.22 40.99 41.98 39.53 41.71 43.84 44.18 43.59 43.13 44.22 48.47 52.62 56.54 58.29 58.74 59.16 58.57 58.63 58.97 53.04 50.18 52.43 51.41 53.48 56.31 59.20 59.03 57.23 55.90 54.94 53.70 50.42 48.23 45.79 44.00 41.98
39.31 36.68 34.58 32.45 29.70 23.48 28.55 27.96 27.20 31.64 34.55 35.62 38.58 40.47 40.62 41.90 42.13 42.17 42.55 43.70 43.75 43.25 42.73 45.29 49.13 51.24 53.32 56.29 56.24 56.41 57.27 53.69 47.57 47.04 49.12 49.08 49.77 54.67 53.57 54.47 56.54 56.12 55.07 54.53 51.90 49.74 46.92 45.87 44.78
35.54 31.69 24.03 22.80 21.71 22.08 27.15 25.75 29.69 35.54 36.84 36.93 38.93 39.10 39.94 40.12 40.77 41.75 42.46 42.51 42.26 42.40 43.26 43.08 45.68 47.15 48.59 51.84 52.92 51.97 54.14 50.68 49.58 48.43 49.87 46.80 47.67 48.26 52.83 52.20 53.02 54.51 54.90 54.94 53.58 50.56 48.12 46.66 45.14
33.45 31.79 24.88 19.28 19.44 22.36 27.45 25.36 32.34 36.50 38.60 39.54 38.56 39.67 39.35 40.95 41.75 42.18 41.81 41.83 41.70 42.79 42.87 43.82 44.07 44.43 45.45 46.69 48.30 48.38 49.84 51.03 50.62 48.58 48.64 48.79 49.30 49.69 47.77 49.48 52.11 52.95 53.65 53.62 53.34 51.08 49.00 47.73 45.93
33.46 30.23 34.07 27.37 16.61 20.99 26.25 29.53 36.21 38.44 36.55 38.36 39.93 40.48 41.40 42.00 42.22 42.37 43.12 43.06 42.58 42.71 43.08 43.51 44.05 44.21 44.14 44.95 45.52 46.31 47.09 48.08 48.61 46.89 47.83 48.47 47.71 46.86 45.46 47.27 47.93 49.86 51.39 51.93 52.31 50.45 48.38 47.32 45.46
34.81 37.29 29.49 27.22 17.67 15.89 23.28 24.93 29.98 34.29 37.00 38.74 38.94 40.06 41.12 42.49 42.91 43.05 42.62 43.05 43.28 43.00 43.04 42.80 43.18 43.57 43.85 44.06 44.20 45.18 46.06 46.75 46.64 46.16 46.64 47.57 46.89 44.83 44.19 45.64 47.59 48.20 49.17 49.72 50.14 49.74 48.33 46.61 45.66
32.85 31.14 31.39 31.73 27.08 21.16 17.98 25.74 33.58 35.17 37.52 37.40 38.11 39.48 39.46 40.75 41.61 42.56 42.80 42.65 42.13 42.11 42.17 42.50 42.55 42.89 43.16 43.29 43.57 43.56 44.04 45.00 45.59 46.38 46.91 47.00 45.54 44.58 44.07 43.39 45.18 46.15 46.60 47.09 47.45 48.28 47.38 45.20 44.85
32.91 32.84 32.51 26.18 24.02 24.69 25.14 26.88 36.91 36.92 37.29 38.41 38.48 39.92 39.87 39.94 40.87 41.18 41.50 41.39 41.23 41.40 41.21 41.60 42.09 42.28 43.00 43.41 43.34 43.30 43.76 44.02 44.38 45.73 46.43 44.58 44.92 42.47 43.61 42.04 41.93 42.86 44.80 45.14 45.30 45.77 46.24 43.93 43.30